Back to catalog

BREEZE-M DEB

TANK

AliveHEO
NORAD 36103·DEBRIS·🇷🇺 Russia

Launched Nov 24, 2009 from Baikonur Cosmodrome

Loading…

Next Passes (next 24 hours)

TLE

FreshSource: Space-Track

Epoch: Sep 13, 2026, 09:36 UTC

1 36103U 09065C   26256.40040133  .00004827  00000-0  75469-3 0  9994
2 36103  49.3834 339.7134 5219589  10.1976 357.2842  5.26838977312731

Track BREEZE-M DEB in real time with AllMySat

Download on the App Store